When you browse on this site, cookies collect data to enhance your experience and personalize the content and advertising you see.
Visit our Privacy Policy to learn more. By continuing to use the site, you agree to this use of cookies and data.

Hourly Weather San Luis

Today, 20 September, Sunday

Time Temperature Precipitation Wind Pressure Humidity
00:00 +6°C° 0 mm 2 mps 703 mmHg 27%
01:00 +7°C° 0 mm 1 mps 702 mmHg 29%
02:00 +6°C° 0 mm 1 mps 702 mmHg 32%
03:00 +6°C° 0 mm 1 mps 702 mmHg 30%
04:00 +6°C° 0 mm 2 mps 702 mmHg 28%
05:00 +6°C° 0 mm 2 mps 702 mmHg 26%
06:00 +8°C° 0 mm 3 mps 703 mmHg 24%
07:00 +11°C° 0 mm 4 mps 704 mmHg 22%
08:00 +13°C° 0 mm 5 mps 704 mmHg 20%
09:00 +15°C° 0 mm 4 mps 704 mmHg 18%
10:00 +18°C° 0 mm 4 mps 704 mmHg 17%
11:00 +19°C° 0 mm 4 mps 704 mmHg 16%
12:00 +20°C° 0 mm 3 mps 704 mmHg 15%
13:00 +21°C° 0 mm 3 mps 704 mmHg 14%
14:00 +22°C° 0 mm 3 mps 703 mmHg 14%
15:00 +22°C° 0 mm 3 mps 703 mmHg 13%
16:00 +23°C° 0 mm 2 mps 703 mmHg 13%
17:00 +23°C° 0 mm 2 mps 702 mmHg 13%
18:00 +19°C° 0 mm 3 mps 702 mmHg 15%
19:00 +17°C° 0 mm 4 mps 702 mmHg 17%
20:00 +13°C° 0 mm 4 mps 702 mmHg 19%
21:00 +13°C° 0 mm 4 mps 702 mmHg 21%
22:00 +12°C° 0 mm 4 mps 702 mmHg 23%
23:00 +12°C° 0 mm 3 mps 702 mmHg 24%

Tomorrow, 21 September, Monday

Time Temperature Precipitation Wind Pressure Humidity
00:00 +12°C° 0 mm 4 mps 702 mmHg 28%
01:00 +12°C° 0 mm 5 mps 702 mmHg 31%
02:00 +11°C° 0 mm 6 mps 701 mmHg 34%
03:00 +11°C° 0 mm 6 mps 701 mmHg 35%
04:00 +10°C° 0 mm 7 mps 701 mmHg 36%
05:00 +10°C° 0 mm 7 mps 701 mmHg 38%
06:00 +11°C° 0 mm 8 mps 701 mmHg 35%
07:00 +13°C° 0 mm 8 mps 701 mmHg 32%
08:00 +15°C° 0 mm 8 mps 702 mmHg 29%
09:00 +17°C° 0 mm 8 mps 702 mmHg 27%
10:00 +20°C° 0 mm 8 mps 702 mmHg 24%
11:00 +22°C° 0 mm 8 mps 702 mmHg 22%
12:00 +23°C° 0 mm 8 mps 701 mmHg 20%
13:00 +24°C° 0 mm 8 mps 700 mmHg 19%
14:00 +26°C° 0 mm 8 mps 699 mmHg 17%
15:00 +26°C° 0 mm 8 mps 699 mmHg 18%
16:00 +24°C° 0 mm 8 mps 698 mmHg 19%
17:00 +24°C° 0 mm 7 mps 697 mmHg 20%
18:00 +22°C° 0 mm 7 mps 697 mmHg 24%
19:00 +19°C° 0 mm 6 mps 697 mmHg 28%
20:00 +16°C° 0 mm 5 mps 697 mmHg 32%
21:00 +16°C° 0 mm 6 mps 697 mmHg 32%
22:00 +15°C° 0 mm 7 mps 697 mmHg 31%
23:00 +15°C° 0 mm 7 mps 697 mmHg 30%

Day after tomorrow, 22 September, Tuesday

Time Temperature Precipitation Wind Pressure Humidity
00:00 +15°C° 0 mm 7 mps 697 mmHg 29%
01:00 +15°C° 0 mm 7 mps 697 mmHg 29%
02:00 +15°C° 0 mm 7 mps 697 mmHg 28%
03:00 +14°C° 0 mm 7 mps 696 mmHg 28%
04:00 +14°C° 0 mm 7 mps 696 mmHg 29%
05:00 +12°C° 0 mm 7 mps 696 mmHg 29%
06:00 +15°C° 0 mm 7 mps 697 mmHg 27%
07:00 +16°C° 0 mm 7 mps 697 mmHg 25%
08:00 +18°C° 0 mm 7 mps 698 mmHg 23%
09:00 +20°C° 0 mm 7 mps 698 mmHg 21%
10:00 +22°C° 0 mm 6 mps 698 mmHg 19%
11:00 +24°C° 0 mm 6 mps 698 mmHg 17%
12:00 +26°C° 0 mm 6 mps 698 mmHg 16%
13:00 +27°C° 0 mm 5 mps 697 mmHg 16%
14:00 +28°C° 0 mm 5 mps 697 mmHg 15%
15:00 +28°C° 0 mm 5 mps 696 mmHg 15%
16:00 +28°C° 0 mm 4 mps 696 mmHg 16%
17:00 +28°C° 0 mm 4 mps 695 mmHg 16%
18:00 +25°C° 0 mm 4 mps 695 mmHg 21%
19:00 +20°C° 0 mm 3 mps 695 mmHg 26%
20:00 +17°C° 0 mm 2 mps 695 mmHg 32%
21:00 +17°C° 0 mm 2 mps 696 mmHg 34%
22:00 +16°C° 0 mm 2 mps 696 mmHg 37%
23:00 +15°C° 0 mm 2 mps 696 mmHg 40%

23 September, Wednesday

Time Temperature Precipitation Wind Pressure Humidity
00:00 +15°C° 0 mm 2 mps 696 mmHg 40%
01:00 +15°C° 0 mm 2 mps 696 mmHg 40%
02:00 +15°C° 0 mm 2 mps 696 mmHg 41%
03:00 +14°C° 0 mm 2 mps 696 mmHg 41%
04:00 +14°C° 0 mm 2 mps 696 mmHg 41%
05:00 +14°C° 0 mm 1 mps 696 mmHg 41%
06:00 +16°C° 0 mm 2 mps 697 mmHg 38%
07:00 +17°C° 0 mm 2 mps 698 mmHg 34%
08:00 +19°C° 0 mm 2 mps 699 mmHg 30%
09:00 +21°C° 0 mm 2 mps 699 mmHg 27%
10:00 +24°C° 0 mm 2 mps 699 mmHg 24%
11:00 +26°C° 0 mm 2 mps 699 mmHg 21%
12:00 +27°C° 0 mm 2 mps 699 mmHg 20%
13:00 +28°C° 0 mm 2 mps 699 mmHg 19%
14:00 +29°C° 0 mm 2 mps 699 mmHg 18%
15:00 +29°C° 0 mm 3 mps 698 mmHg 19%
16:00 +28°C° 0 mm 4 mps 698 mmHg 19%
17:00 +28°C° 0 mm 6 mps 697 mmHg 20%
18:00 +26°C° 0 mm 5 mps 697 mmHg 24%
19:00 +22°C° 0 mm 5 mps 698 mmHg 27%
20:00 +20°C° 0 mm 5 mps 698 mmHg 30%
21:00 +19°C° 0 mm 4 mps 698 mmHg 32%
22:00 +19°C° 0 mm 4 mps 698 mmHg 34%
23:00 +18°C° 0 mm 4 mps 698 mmHg 36%

24 September, Thursday

Time Temperature Precipitation Wind Pressure Humidity
00:00 +18°C° 0 mm 3 mps 698 mmHg 38%
01:00 +17°C° 0 mm 3 mps 697 mmHg 41%
02:00 +17°C° 0 mm 3 mps 697 mmHg 44%
03:00 +17°C° 0 mm 3 mps 697 mmHg 47%
04:00 +17°C° 0 mm 2 mps 697 mmHg 49%
05:00 +17°C° 0 mm 2 mps 696 mmHg 52%
06:00 +18°C° 0 mm 3 mps 697 mmHg 50%
07:00 +20°C° 0 mm 3 mps 697 mmHg 47%
08:00 +21°C° 0 mm 3 mps 697 mmHg 45%
09:00 +23°C° 0.1 mm 4 mps 697 mmHg 44%
10:00 +25°C° 0.1 mm 5 mps 697 mmHg 43%
11:00 +27°C° 0.1 mm 7 mps 697 mmHg 43%
12:00 +27°C° 0.1 mm 6 mps 697 mmHg 43%
13:00 +27°C° 0.1 mm 5 mps 696 mmHg 44%
14:00 +27°C° 0.1 mm 4 mps 695 mmHg 45%
15:00 +27°C° 0.1 mm 4 mps 695 mmHg 44%
16:00 +27°C° 0.1 mm 4 mps 694 mmHg 43%
17:00 +27°C° 0.1 mm 4 mps 694 mmHg 43%
18:00 +25°C° 0.1 mm 5 mps 694 mmHg 51%
19:00 +22°C° 0.1 mm 5 mps 694 mmHg 59%
20:00 +20°C° 0.1 mm 5 mps 694 mmHg 68%
21:00 +19°C° 0.4 mm 4 mps 694 mmHg 73%
22:00 +19°C° 0.4 mm 3 mps 694 mmHg 78%
23:00 +18°C° 0.4 mm 2 mps 694 mmHg 83%

25 September, Friday

Time Temperature Precipitation Wind Pressure Humidity
00:00 +17°C° 0.6 mm 2 mps 694 mmHg 85%
01:00 +17°C° 0.6 mm 2 mps 694 mmHg 86%
02:00 +17°C° 0.6 mm 2 mps 694 mmHg 88%
03:00 +16°C° 0.7 mm 2 mps 694 mmHg 90%
04:00 +16°C° 0.7 mm 2 mps 694 mmHg 93%
05:00 +16°C° 0.7 mm 2 mps 694 mmHg 95%
06:00 +16°C° 0.3 mm 3 mps 695 mmHg 93%
07:00 +17°C° 0.3 mm 4 mps 695 mmHg 91%
08:00 +16°C° 0.3 mm 5 mps 696 mmHg 89%
09:00 +16°C° 0.3 mm 5 mps 696 mmHg 88%
10:00 +16°C° 0.3 mm 6 mps 697 mmHg 86%
11:00 +16°C° 0.3 mm 6 mps 697 mmHg 85%
12:00 +16°C° 0.4 mm 6 mps 697 mmHg 85%
13:00 +15°C° 0.4 mm 7 mps 697 mmHg 86%
14:00 +15°C° 0.4 mm 7 mps 697 mmHg 87%
15:00 +14°C° 0.1 mm 7 mps 697 mmHg 86%
16:00 +13°C° 0.1 mm 8 mps 697 mmHg 85%
17:00 +12°C° 0.1 mm 8 mps 697 mmHg 84%
18:00 +12°C° 0.1 mm 7 mps 698 mmHg 82%
19:00 +12°C° 0.1 mm 7 mps 698 mmHg 80%
20:00 +11°C° 0.1 mm 6 mps 699 mmHg 78%
21:00 +12°C° 0.1 mm 5 mps 699 mmHg 78%
22:00 +12°C° 0.1 mm 5 mps 699 mmHg 78%
23:00 +12°C° 0.1 mm 4 mps 700 mmHg 77%
Show more